[[{"header":{"parameterUnit":"m.s-1","parameterCategory":1,"la1":30.2991,"la2":30.254,"lo1":-89.0895,"lo2":-89.0444,"dy":0.0017,"dx":0.0017,"nx":28,"ny":28,"refTime":"2024-10-16T09:00:00:Z","depth":0,"parameterNumber":2,"parameterNumberName":"U-component_of_WINDS"},"data":[0,0,0,0,0,0,0,0,0,0,0,0,0,0,0,0,0,0,0,0,0,0,0,0,0,0,0,0,0,0,0,0,0,0,0,0,0,0,0,0,0,0,0,0,0,0,0,0,0,0,0,0,0,0,0,0,0,0,-4.3521,-4.3521,0,-4.3497,-4.3496,-4.3496,-4.3307,-4.3303,-4.3298,-4.3294,-4.3272,-4.3275,-4.3279,0,0,0,0,0,0,0,0,0,0,0,0,0,-4.3406,-4.3409,-4.3521,-4.3521,-4.352,-4.3497,-4.3496,-4.3496,-4.3308,-4.3302,-4.3297,-4.3291,-4.327,-4.3275,-4.3279,0,0,0,0,0,0,0,0,0,0,0,0,0,-4.3426,-4.341,-4.3521,-4.3424,-4.3415,-4.3497,-4.3496,-4.3496,-4.3309,-4.3302,-4.3295,-4.3289,-4.3269,-4.3274,-4.328,-4.3455,0,0,-4.3297,-4.33,0,0,0,0,0,0,0,0,-4.3425,-4.3431,-4.3438,-4.343,-4.3421,-4.3398,-4.3447,-4.3482,-4.3311,-4.335,-4.3293,-4.3285,-4.332,-4.3321,-4.3331,-4.3454,-4.3453,-4.3298,-4.3301,-4.3304,-4.3305,0,0,0,0,0,0,0,-4.3424,-4.3431,-4.3511,-4.3439,-4.3428,-4.3382,-4.3377,-4.3453,-4.3374,-4.3346,-4.3332,-4.3331,-4.3313,-4.3326,-4.3329,-4.3452,-4.3298,-4.3303,-4.3306,-4.3308,-4.3714,-4.3721,0,0,0,0,0,0,-4.3436,-4.3431,-4.3512,-4.3511,-4.3406,-4.3389,-4.3384,-4.3412,-4.3373,-4.336,-4.3337,-4.3323,-4.332,-4.3323,-4.3328,-4.3527,-4.3304,-4.3309,-4.3312,-4.3706,-4.3715,-4.3723,0,0,0,0,0,0,-4.3434,-4.3445,-4.3513,-4.3467,-4.3472,-4.3399,-4.3432,-4.3415,-4.3428,-4.3366,-4.3351,-4.3365,-4.3315,-4.332,-4.3424,-4.3523,-4.3311,-4.3316,-4.3698,-4.3709,-4.3719,-4.3928,0,0,0,0,0,0,-4.3432,-4.3446,-4.3511,-4.347,-4.3475,-4.3609,-4.3438,-4.342,-4.3438,-4.3419,-4.3388,-4.3377,-4.331,-4.3416,-4.3429,-4.3527,-4.3321,-4.3688,-4.3703,-4.3716,-4.3912,-4.3945,-4.3974,0,0,0,0,0,-4.3428,-4.3572,-4.3515,-4.3526,-4.3555,-4.3615,-4.3618,-4.3537,-4.3447,-4.3512,-4.3472,-4.3378,-4.3512,-4.3428,-4.3442,-4.3543,-4.3681,-4.3699,-4.3715,-4.3898,-4.3939,-4.3973,0,0,0,0,0,0,-4.3629,-4.3565,-4.3501,-4.3636,-4.3632,-4.3583,-4.3663,-4.3583,-4.3606,-4.3587,-4.3487,-4.3482,-4.36,-4.3582,-4.3491,-4.3709,-4.358,-4.36,-4.3715,-4.3753,-4.3783,-4.3784,-4.3326,0,0,0,0,0,-4.3688,-4.3742,-4.3684,-4.3808,-4.3809,-4.3737,-4.376,-4.3698,-4.3691,-4.3689,-4.3656,-4.3653,-4.3694,-4.3723,-4.3757,-4.391,-4.3899,-4.3986,-4.4017,-4.4042,-4.406,-4.4136,-4.4173,-4.3778,-4.3778,-4.3777,0,0,-4.3812,-4.3784,-4.3824,-4.3848,-4.3837,-4.3895,-4.3737,-4.3805,-4.3846,-4.3699,-4.3793,-4.377,-4.376,-4.3888,-4.3943,-4.3877,-4.4167,-4.4063,-4.4084,-4.4088,-4.4157,-4.4195,-4.4228,-4.3789,-4.3787,-4.3785,0,0,-4.4066,-4.4052,-4.4152,-4.4145,-4.4131,-4.4081,-4.4106,-4.4069,-4.4047,-4.414,-4.403,-4.4079,-4.4152,-4.4148,-4.4156,-4.4409,-4.4322,-4.4423,-4.4582,-4.4658,-4.4689,-4.4716,-4.4803,-4.4836,-4.4442,-4.4442,-4.4443,0,-4.4222,-4.4303,-4.4214,-4.4288,-4.4301,-4.4169,-4.4269,-4.4267,-4.4267,-4.4278,-4.4205,-4.4292,-4.4276,-4.44,-4.4462,-4.4474,-4.4497,-4.4425,-4.4692,-4.4718,-4.4742,-4.4824,-4.4858,-4.4454,-4.4453,-4.4452,-4.4451,0,-4.4494,-4.4552,-4.4635,-4.4635,-4.4657,-4.4745,-4.4669,-4.4703,-4.4639,-4.4598,-4.4694,-4.467,-4.4696,-4.4722,-4.4662,-4.4837,-4.4796,-4.471,-4.4577,-4.4793,-4.4868,-4.4899,-4.4472,-4.4467,-4.4464,-4.4461,0,0,-4.4872,-4.4821,-4.4852,-4.4849,-4.4824,-4.4867,-4.4949,-4.4973,-4.5002,-4.5007,-4.5071,-4.5136,-4.5055,-4.5064,-4.5002,-4.5069,-4.5267,-4.4973,-4.4971,-4.5026,-4.5456,-4.5519,-4.5557,-4.5211,-4.5217,-4.5221,-4.5456,0,-4.5113,-4.5247,-4.5169,-4.5314,-4.5365,-4.5241,-4.5312,-4.5304,-4.5268,-4.5307,-4.5268,-4.5313,-4.5204,-4.5209,-4.527,-4.523,-4.5352,-4.5213,-4.5269,-4.5272,-4.5271,-4.5597,-4.5664,-4.5886,-4.5485,-4.549,-4.5494,0,-4.5412,-4.5426,-4.5577,-4.5539,-4.5558,-4.5622,-4.5636,-4.5676,-4.5665,-4.5634,-4.5644,-4.5566,-4.5642,-4.5515,-4.5619,-4.5526,-4.5545,-4.5529,-4.5536,-4.5535,-4.5393,-4.5602,-4.5956,-4.5988,-4.554,-4.5536,-4.5533,0,-4.5668,-4.5726,-4.5822,-4.5824,-4.5784,-4.5832,-4.5817,-4.5799,-4.5818,-4.5832,-4.5843,-4.5867,-4.5879,-4.59,-4.5829,-4.5744,-4.5942,-4.5809,-4.5917,-4.5919,-4.5962,-4.5959,-4.632,-4.5981,-4.598,-4.598,-4.5979,0,-4.5943,-4.6039,-4.5936,-4.5995,-4.6098,-4.6008,-4.6113,-4.6086,-4.6071,-4.6122,-4.6019,-4.6069,-4.5975,-4.6017,-4.5963,-4.6056,-4.6063,-4.604,-4.6023,-4.6047,-4.6049,-4.6055,-4.6036,-4.5988,-4.5987,-4.5985,-4.5983,0,-4.6245,-4.618,-4.6276,-4.623,-4.6221,-4.6299,-4.6259,-4.6312,-4.6269,-4.6335,-4.6346,-4.6279,-4.6322,-4.6255,-4.6292,-4.6255,-4.6382,-4.6345,-4.6385,-4.6373,-4.6483,-4.6472,-4.6857,-4.6902,-4.6538,-4.6542,-4.6545,0,-4.6423,-4.6494,-4.6454,-4.648,-4.6471,-4.6516,-4.6533,-4.6448,-4.6472,-4.6464,-4.6517,-4.6552,-4.6574,-4.6649,-4.6604,-4.6631,-4.6591,-4.6724,-4.6594,-4.6615,-4.6589,-4.6584,-4.6589,-4.675,-4.6754,-4.6758,-4.6761,0,-4.6745,-4.6709,-4.6738,-4.6756,-4.678,-4.6791,-4.6794,-4.6822,-4.6732,-4.6764,-4.6805,-4.6823,-4.6859,-4.6894,-4.691,-4.6895,-4.6813,-4.6803,-4.6828,-4.6851,-4.687,-4.6857,-4.6454,-4.6793,-4.679,-4.6788,-4.6786,-4.6785,-4.6987,-4.7043,-4.7023,-4.7058,-4.7052,-4.7057,-4.7103,-4.7065,-4.7098,-4.7119,-4.7068,-4.7122,-4.7108,-4.7121,-4.7116,-4.7157,-4.7098,-4.7137,-4.7145,-4.7155,-4.7171,-4.6867,-4.716,-4.7159,-4.7158,-4.7157,-4.7157,0,-4.73,-4.7281,-4.7315,-4.7321,-4.7349,-4.7269,-4.7268,-4.7297,-4.7345,-4.7339,-4.7363,-4.7411,-4.7444,-4.7402,-4.7428,-4.7469,-4.7432,-4.7478,-4.7472,-4.747,-4.7223,-4.7197,-4.7508,-4.7507,-4.7507,-4.7507,-4.7507,-4.7507,-4.7465,-4.7554,-4.7516,-4.76,-4.758,-4.763,-4.7636,-4.764,-4.7634,-4.7692,-4.7718,-4.769,-4.7669,-4.7693,-4.772,-4.7706,-4.7719,-4.7779,-4.7752,-4.7522,-4.7488,-4.7455,-4.7429,-4.7783,-4.7784,-4.7994,-4.7996,-4.7998]},{"header":{"parameterUnit":"m.s-1","parameterCategory":1,"la1":30.2991,"la2":30.254,"lo1":-89.0895,"lo2":-89.0444,"dy":0.0017,"dx":0.0017,"nx":28,"ny":28,"refTime":"2024-10-16T09:00:00:Z","depth":0,"parameterNumber":3,"parameterNumberName":"V-component_of_WINDS"},"data":[0,0,0,0,0,0,0,0,0,0,0,0,0,0,0,0,0,0,0,0,0,0,0,0,0,0,0,0,0,0,0,0,0,0,0,0,0,0,0,0,0,0,0,0,0,0,0,0,0,0,0,0,0,0,0,0,0,0,-2.5974,-2.5975,0,-2.6027,-2.6027,-2.6028,-2.603,-2.603,-2.6029,-2.6029,-2.6079,-2.6081,-2.6083,0,0,0,0,0,0,0,0,0,0,0,0,0,-2.5872,-2.5874,-2.5974,-2.5975,-2.5976,-2.6026,-2.6027,-2.6028,-2.6031,-2.603,-2.6029,-2.6028,-2.6079,-2.6081,-2.6083,0,0,0,0,0,0,0,0,0,0,0,0,0,-2.592,-2.5875,-2.5974,-2.5983,-2.5985,-2.6026,-2.6027,-2.6028,-2.6031,-2.603,-2.6029,-2.6028,-2.6078,-2.6081,-2.6083,-2.6119,0,0,-2.6092,-2.6093,0,0,0,0,0,0,0,0,-2.5917,-2.5923,-2.5981,-2.5983,-2.5984,-2.6021,-2.601,-2.6058,-2.6031,-2.6013,-2.6029,-2.6028,-2.606,-2.6065,-2.6076,-2.6121,-2.6123,-2.6092,-2.6094,-2.6095,-2.6096,0,0,0,0,0,0,0,-2.5914,-2.5921,-2.5995,-2.5982,-2.5984,-2.5983,-2.5989,-2.6019,-2.6041,-2.6015,-2.6015,-2.6021,-2.6061,-2.6073,-2.6077,-2.6124,-2.6092,-2.6095,-2.6096,-2.6098,-2.6197,-2.6198,0,0,0,0,0,0,-2.5909,-2.5918,-2.5993,-2.5996,-2.5948,-2.5986,-2.5992,-2.601,-2.6041,-2.6045,-2.6022,-2.6021,-2.6069,-2.6074,-2.6079,-2.6121,-2.6095,-2.6098,-2.61,-2.6196,-2.6197,-2.6198,0,0,0,0,0,0,-2.5907,-2.5916,-2.5991,-2.5958,-2.5967,-2.5988,-2.6009,-2.6012,-2.6024,-2.6046,-2.605,-2.6031,-2.6069,-2.6075,-2.6108,-2.6122,-2.6099,-2.6102,-2.6195,-2.6196,-2.6198,-2.6205,0,0,0,0,0,0,-2.5904,-2.5915,-2.593,-2.5958,-2.5969,-2.6021,-2.601,-2.6013,-2.6029,-2.6029,-2.6056,-2.6059,-2.6068,-2.6104,-2.6111,-2.6126,-2.6104,-2.6194,-2.6196,-2.6197,-2.6203,-2.6206,-2.6209,0,0,0,0,0,-2.5901,-2.593,-2.5931,-2.594,-2.5988,-2.6022,-2.6028,-2.6039,-2.6031,-2.6045,-2.6058,-2.6058,-2.612,-2.6107,-2.6115,-2.6131,-2.6193,-2.6195,-2.6197,-2.6202,-2.6206,-2.6209,0,0,0,0,0,0,-2.5903,-2.5934,-2.5935,-2.5975,-2.5996,-2.6022,-2.6041,-2.6043,-2.6065,-2.6064,-2.6075,-2.6081,-2.6113,-2.6126,-2.6111,-2.6165,-2.6155,-2.6159,-2.6156,-2.616,-2.6163,-2.6158,-2.6106,0,0,0,0,0,-2.5908,-2.5934,-2.5959,-2.5992,-2.6002,-2.602,-2.6035,-2.6041,-2.6063,-2.6071,-2.6087,-2.6107,-2.6131,-2.6146,-2.6169,-2.6205,-2.621,-2.622,-2.6222,-2.6225,-2.6227,-2.6245,-2.6249,-2.6205,-2.6205,-2.6205,0,0,-2.592,-2.594,-2.5955,-2.5993,-2.601,-2.6034,-2.6027,-2.6054,-2.6072,-2.6075,-2.6107,-2.6119,-2.6142,-2.6176,-2.6192,-2.6187,-2.624,-2.6227,-2.6229,-2.623,-2.6247,-2.6251,-2.6255,-2.6207,-2.6206,-2.6206,0,0,-2.5952,-2.5971,-2.5999,-2.6015,-2.6041,-2.6052,-2.6058,-2.6084,-2.6093,-2.6125,-2.6127,-2.6147,-2.6189,-2.6204,-2.6217,-2.6252,-2.6252,-2.626,-2.6273,-2.629,-2.6293,-2.6296,-2.6307,-2.6311,-2.6262,-2.6262,-2.6263,0,-2.5962,-2.6001,-2.6013,-2.6039,-2.6055,-2.6058,-2.6085,-2.6101,-2.6132,-2.6142,-2.6136,-2.6186,-2.6202,-2.6238,-2.6247,-2.6258,-2.6264,-2.6256,-2.6292,-2.6295,-2.6298,-2.6308,-2.6313,-2.6263,-2.6263,-2.6263,-2.6263,0,-2.6011,-2.6038,-2.6057,-2.6087,-2.6105,-2.6131,-2.6145,-2.6161,-2.6165,-2.6176,-2.6207,-2.6226,-2.6252,-2.6261,-2.6266,-2.6297,-2.6293,-2.629,-2.628,-2.6303,-2.6312,-2.6317,-2.6264,-2.6264,-2.6264,-2.6263,0,0,-2.6048,-2.6083,-2.6089,-2.6102,-2.6129,-2.6149,-2.6175,-2.62,-2.6213,-2.6234,-2.6254,-2.6287,-2.6284,-2.6298,-2.6304,-2.6319,-2.6343,-2.6314,-2.6314,-2.6317,-2.6377,-2.6378,-2.6383,-2.6343,-2.6344,-2.6345,-2.6374,0,-2.6082,-2.6129,-2.6139,-2.6178,-2.6201,-2.6204,-2.6226,-2.6244,-2.6254,-2.6274,-2.6285,-2.6308,-2.6302,-2.6311,-2.6326,-2.6337,-2.6355,-2.6335,-2.6361,-2.6361,-2.6354,-2.6388,-2.6391,-2.6417,-2.6378,-2.6379,-2.6379,0,-2.6129,-2.615,-2.6192,-2.6214,-2.6224,-2.6244,-2.6267,-2.6286,-2.6306,-2.6312,-2.6327,-2.6331,-2.6355,-2.6344,-2.6377,-2.6363,-2.6374,-2.6381,-2.6382,-2.6384,-2.6371,-2.639,-2.6426,-2.643,-2.6386,-2.6385,-2.6385,0,-2.6149,-2.6188,-2.6218,-2.6229,-2.6256,-2.6269,-2.628,-2.6299,-2.6313,-2.6332,-2.6341,-2.6363,-2.6375,-2.6391,-2.6399,-2.6391,-2.643,-2.6421,-2.6434,-2.6434,-2.6442,-2.6442,-2.648,-2.6451,-2.6451,-2.6451,-2.6451,0,-2.6185,-2.621,-2.6227,-2.6245,-2.6272,-2.6282,-2.6309,-2.632,-2.6336,-2.6355,-2.6358,-2.6376,-2.6387,-2.6405,-2.6412,-2.6436,-2.6442,-2.6446,-2.6447,-2.6445,-2.6445,-2.6452,-2.645,-2.6452,-2.6452,-2.6452,-2.6451,0,-2.6212,-2.6225,-2.6257,-2.6279,-2.6285,-2.6304,-2.6322,-2.6339,-2.6348,-2.6372,-2.6378,-2.6392,-2.6414,-2.6424,-2.6451,-2.6455,-2.6483,-2.6483,-2.6476,-2.6476,-2.6489,-2.6487,-2.6533,-2.6538,-2.6507,-2.6507,-2.6508,0,-2.6234,-2.6254,-2.6277,-2.629,-2.6302,-2.6323,-2.6337,-2.6347,-2.6361,-2.6383,-2.6396,-2.6418,-2.6436,-2.647,-2.6482,-2.6502,-2.6502,-2.6516,-2.6505,-2.6501,-2.65,-2.6498,-2.6499,-2.6518,-2.6518,-2.6519,-2.6519,0,-2.6271,-2.6276,-2.6296,-2.6318,-2.6335,-2.6352,-2.6369,-2.638,-2.6392,-2.6407,-2.6429,-2.6443,-2.6469,-2.649,-2.651,-2.652,-2.6521,-2.6522,-2.6526,-2.6524,-2.6518,-2.652,-2.648,-2.6521,-2.6521,-2.6521,-2.6521,-2.6521,-2.6295,-2.6312,-2.633,-2.6352,-2.6366,-2.6381,-2.6397,-2.6408,-2.6427,-2.645,-2.6454,-2.6477,-2.6493,-2.6521,-2.6531,-2.6548,-2.6545,-2.6551,-2.6552,-2.6553,-2.6553,-2.6516,-2.6552,-2.6552,-2.6552,-2.6552,-2.6552,0,-2.6331,-2.6343,-2.6363,-2.6386,-2.6403,-2.6402,-2.6421,-2.6434,-2.6454,-2.647,-2.6487,-2.6511,-2.653,-2.6544,-2.6563,-2.6574,-2.6574,-2.6578,-2.6577,-2.6579,-2.6556,-2.655,-2.6577,-2.6577,-2.6577,-2.6577,-2.6577,-2.6577,-2.6351,-2.6378,-2.6384,-2.6417,-2.6428,-2.6451,-2.6461,-2.6474,-2.6487,-2.6513,-2.653,-2.6538,-2.6552,-2.6572,-2.6589,-2.6592,-2.6599,-2.6602,-2.6605,-2.6583,-2.6581,-2.6578,-2.6572,-2.6604,-2.6604,-2.6627,-2.6627,-2.6627]}]]